FW7064 Weather Reports


Display with metric or nautical units.
time (UTC)temp
F
wind
direction
speed
MPH
gust
MPH
rain 1hr
in
rain 24hr
in
rain mn
in
humidity
%
barometer
mb
20260503215818 65 315 0.0 0.0 0.00 0.00 0.00 60 1013.9
20260503214820 65 315 0.0 0.0 0.00 0.00 0.00 63 1014.1
20260503213819 65 315 0.0 0.0 0.00 0.00 0.00 63 1014.2
20260503212819 64 315 0.0 0.0 0.00 0.00 0.00 64 1014.3
20260503205917 62 315 0.0 0.0 0.00 0.00 0.00 69 1014.6
20260503203921 63 337 0.0 0.0 0.00 0.00 0.00 69 1014.6
20260503203019 63 315 0.0 0.0 0.00 0.00 0.00 68 1014.7
20260503202018 62 337 0.0 0.0 0.00 0.00 0.00 69 1014.7
20260503201019 61 337 0.0 0.0 0.00 0.00 0.00 71 1014.7
20260503200920 61 337 0.0 0.0 0.00 0.00 0.00 71 1014.7
20260503200018 62 337 0.0 0.0 0.00 0.00 0.00 69 1014.9
20260503194021 62 292 0.0 0.0 0.00 0.00 0.00 66 1015.1
20260503193019 63 315 0.0 0.0 0.00 0.00 0.00 65 1015.3
20260503192021 63 315 0.0 0.0 0.00 0.00 0.00 65 1015.3
20260503191020 62 315 0.0 0.0 0.00 0.00 0.00 66 1015.5
20260503190019 62 315 0.0 0.0 0.00 0.00 0.00 68 1015.6
20260503185020 62 315 0.0 0.0 0.00 0.00 0.00 67 1015.6
20260503184118 61 315 0.0 0.0 0.00 0.00 0.00 70 1015.8
20260503184021 61 315 0.0 0.0 0.00 0.00 0.00 71 1015.7
20260503183021 59 315 0.0 0.0 0.00 0.00 0.00 73 1015.9
20260503182918 59 301 0.0 0.0 0.00 0.00 0.00 73 1015.9
20260503181920 61 315 0.0 0.0 0.00 0.00 0.00 70 1016.0
20260503180920 61 315 0.0 0.0 0.00 0.00 0.00 72 1016.1
20260503175019 59 315 0.0 0.0 0.00 0.00 0.00 72 1016.2
20260503174020 60 315 0.0 0.0 0.00 0.00 0.00 71 1016.3
20260503173117 60 293 0.0 0.0 0.00 0.00 0.00 72 1016.4
20260503172120 60 295 0.0 0.0 0.00 0.00 0.00 71 1016.4
20260503171119 60 292 0.0 0.0 0.00 0.00 0.00 71 1016.5
20260503170117 61 292 0.0 0.0 0.00 0.00 0.00 70 1016.4
20260503150418 57 292 0.0 0.0 0.00 0.00 0.00 75 1016.9
20260503130721 58 292 0.0 0.0 0.00 0.00 0.00 74 1016.2
20260503081019 53 360 0.0 0.0 0.00 0.00 0.00 89 1016.1
20260503080118 53 360 0.0 0.0 0.00 0.00 0.00 88 1016.1
20260503072318 53 360 0.0 0.0 0.00 0.00 0.00 86 1016.0
20260503071319 53 360 0.0 0.0 0.00 0.00 0.00 85 1016.0
20260503070318 53 315 0.0 0.0 0.00 0.00 0.00 85 1016.0
20260503070219 53 315 0.0 0.0 0.00 0.00 0.00 85 1016.0
20260503060323 56 292 0.0 0.0 0.00 0.00 0.00 73 1016.0
20260503054324 61 157 0.0 0.0 0.00 0.00 0.00 67 1015.9
20260503052324 60 157 0.0 0.0 0.00 0.00 0.00 71 1016.0
20260503051421 60 135 0.0 0.0 0.00 0.00 0.00 69 1016.0
20260503051323 60 135 0.0 0.0 0.00 0.00 0.00 69 1015.9
20260503050322 60 135 0.0 0.0 0.00 0.00 0.00 69 1016.0
20260503045421 59 135 0.0 0.0 0.00 0.00 0.00 73 1015.9
20260503044423 58 112 0.0 0.0 0.00 0.00 0.00 75 1015.9
20260503043522 58 112 0.0 0.0 0.00 0.00 0.00 76 1015.9
20260503041522 57 157 0.0 0.0 0.00 0.00 0.00 77 1015.7
20260503040522 58 157 0.0 0.0 0.00 0.00 0.00 75 1015.6
20260503035622 58 157 0.0 0.0 0.00 0.00 0.00 72 1015.6
20260503034623 58 157 0.0 0.0 0.00 0.00 0.00 73 1015.3
20260503033624 59 157 0.0 0.0 0.00 0.00 0.00 72 1015.2
20260503032722 59 157 0.0 0.0 0.00 0.00 0.00 71 1015.1
20260503030722 60 337 0.0 0.0 0.00 0.00 0.00 69 1015.0
20260503025722 60 337 0.0 0.0 0.00 0.00 0.00 68 1015.0
20260503024622 62 337 0.0 0.0 0.00 0.00 0.00 67 1015.0
20260503023621 60 337 0.0 0.0 0.00 0.00 0.00 69 1015.1
20260503023522 60 303 0.0 0.0 0.00 0.00 0.00 70 1015.0
20260503022522 59 315 0.0 0.0 0.00 0.00 0.00 69 1015.1
20260503021523 60 315 0.0 0.0 0.00 0.00 0.00 68 1015.1
20260503020523 60 315 0.0 0.0 0.00 0.00 0.00 67 1015.0
20260503015522 63 315 0.0 0.0 0.00 0.00 0.00 63 1015.2
20260503014523 65 292 0.0 0.0 0.00 0.00 0.00 64 1015.2
20260503013525 61 292 0.0 0.0 0.00 0.00 0.00 70 1015.3
20260503012622 61 315 0.0 0.0 0.00 0.00 0.00 69 1015.5
20260503011624 61 292 0.0 0.0 0.00 0.00 0.00 69 1015.6
20260503005821 61 315 0.0 0.0 0.00 0.00 0.00 67 1015.7
20260503003922 61 315 0.0 0.0 0.00 0.00 0.00 70 1015.8
20260503002923 59 315 0.0 0.0 0.00 0.00 0.00 70 1015.8
20260503001923 61 315 0.0 0.0 0.00 0.00 0.00 66 1015.8
20260503001824 61 304 0.0 0.0 0.00 0.00 0.00 65 1015.7
20260503000922 63 315 0.0 0.0 0.00 0.00 0.00 65 1015.9
20260502235922 62 292 0.0 0.0 0.00 0.00 0.00 66 1015.9
20260502233922 61 307 0.0 0.0 0.00 0.00 0.00 67 1016.2
20260502232923 62 292 0.0 0.0 0.00 0.00 0.00 66 1016.2
20260502231923 62 292 0.0 0.0 0.00 0.00 0.00 66 1016.3
20260502230924 62 298 0.0 0.0 0.00 0.00 0.00 67 1016.4
20260502224922 61 293 0.0 0.0 0.00 0.00 0.00 70 1016.8
20260502223921 61 296 0.0 0.0 0.00 0.00 0.00 71 1017.0
20260502222923 62 292 0.0 0.0 0.00 0.00 0.00 71 1017.1
20260502222823 62 294 0.0 0.0 0.00 0.00 0.00 70 1017.2
20260502220923 60 296 0.0 0.0 0.00 0.00 0.00 73 1017.5